Location: Demmingen
(48.6757°N, 10.4375°E)
Time: 14:41:46
(UTC+00:00)

CZ-2C R/B - Pass Details

Date: 17 August 2024
Orbit: 782 x 869 km, 98.3° (Epoch: 15 September)

Event Time Altitude Azimuth Distance (km) Brightness Sun altitude
Exits shadow 01:58:14 33° 242° (WSW) 1,388 3.3 -19.1°
Maximum altitude 01:59:13 35° 264° (W) 1,322 3.3 -19.0°
Drops below altitude 10° 02:04:09 10° 330° (NNW) 2,433 5.3 -18.4°
Sets 02:06:41 0° 339° (NNW) 3,356 6.2 -18.2°
